Content
SEND FEEDBACK

Daily
Averages
Monthly
Summary
United States of America

TRAIL, OREGON


Home > North America > United States > Oregon
Elevation: 610 meters     Latitude: 42 40N     Longitude: 122 41W

WEATHER
 
SELECT A DAY
Number of Records: 202,035;   Date Range: 1/1/95 - 11/23/14
 
SHARE

PRINT THIS DATA

[ ← Previous Day ]
WEATHER ALMANAC - 13 FEBRUARY, 2013
[ Next Day → ]
[ °F ]   °C
Weather ElementAverageHighLow
Temperature7.1 °C14.4 °C (2:53 pm)1.1 °C (1:53 am)
Dewpoint2 °C5 °C (6:53 pm)-0.6 °C (1:53 am)
Humidity72.6 %92 % (3:53 am)47 % (2:53 pm)
Barometer1031.8 hPa1033.5 hPa (9:53 am)1029.5 hPa (4:53 pm)
Wind Speed3.2 km/h11.1 km/h (7:53 pm)
Weather ElementAverage
Visibility15.9 km
Wind DirectionESE (98.7 °)

Weather ElementTotal
Precipitation---
Heating Degree Days10.6 (Base 18.3)
Averaged from 23 records on 13 February, 2013
WEATHER CONDITIONS BREAKOUT
WIND DIRECTION BREAKOUT
WEATHER BY HOUR - 13 FEBRUARY, 2013
[ °F ]   °C
Local TimeTemperatureDewpointHumidityBarometerVisibilityWind DirectionWind SpeedGust SpeedPrecipitationEventsConditions
1:53 AM1.1 °C-0.6 °C89 %1032.8 hPa16.1 kmEast (100°)5.6 km/hScattered Clouds
2:53 AM1.1 °C-0.6 °C89 %1032.8 hPa16.1 kmNNE (20°)9.3 km/hClear
3:53 AM1.1 °C0 °C92 %1032.8 hPa16.1 kmCalmClear
4:53 AM2.2 °C0.6 °C89 %1032.5 hPa16.1 kmCalmPartly Cloudy
5:53 AM1.1 °C0 °C92 %1032.5 hPa14.5 kmCalmPartly Cloudy
6:53 AM1.7 °C0 °C89 %1032.5 hPa16.1 kmCalmClear
7:53 AM1.7 °C0 °C89 %1033.2 hPa14.5 kmCalmScattered Clouds
8:53 AM3.3 °C1.1 °C86 %1033.2 hPa14.5 kmCalmClear
9:53 AM5.6 °C1.7 °C76 %1033.5 hPa16.1 kmCalmClear
10:53 AM7.2 °C2.2 °C71 %1033.5 hPa16.1 kmCalmClear
11:53 AM10 °C2.8 °C61 %1032.5 hPa16.1 kmCalmClear
12:53 PM11.7 °C2.8 °C55 %1031.5 hPa16.1 kmWest (280°)5.6 km/hClear
1:53 PM13.3 °C2.8 °C49 %1030.8 hPa16.1 kmCalmClear
2:53 PM14.4 °C3.3 °C47 %1030.1 hPa16.1 kmCalmClear
3:53 PM14.4 °C3.9 °C49 %1029.8 hPa16.1 kmCalmScattered Clouds
4:53 PM14.4 °C3.3 °C47 %1029.5 hPa16.1 kmWNW (300°)7.4 km/hScattered Clouds
5:53 PM12.8 °C3.3 °C53 %1029.5 hPa16.1 kmNW (310°)5.6 km/hScattered Clouds
6:53 PM11.1 °C5 °C66 %1030.5 hPa16.1 kmNorth (350°)9.3 km/hScattered Clouds
7:53 PM10 °C3.9 °C66 %1030.8 hPa16.1 kmNNW (340°)11.1 km/hScattered Clouds
8:53 PM7.8 °C3.3 °C73 %1031.2 hPa16.1 kmEast (100°)7.4 km/hClear
9:53 PM5.6 °C2.2 °C79 %1031.8 hPa16.1 kmSE (130°)5.6 km/hClear
10:53 PM6.1 °C2.8 °C80 %1032.2 hPa16.1 kmCalmClear
11:53 PM4.4 °C1.7 °C83 %1031.8 hPa16.1 kmNNW (340°)5.6 km/hClear
Hourly data recorded from KMFR, located 0 kilometers away from Trail, Oregon







STORIES FROM OUR PARTNERS